Regional Weather Roundup
Issued by NWS

Home | Current Version | Previous Version | Graphics & Text | Print | Product List | Glossary On
Versions: 1 2 3 4 5 6 7 8 9 10 11 12 13 14 15 16 17 18 19 20 21 22 23 24 25 26 27 28 29 30 31 32 33 34 35 36 37 38 39 40 41 42 43 44 45 46 47 48 49 50
672
ASUS43 KIND 280409
RWRIN

WEATHER ROUNDUP FOR INDIANA
NATIONAL WEATHER SERVICE INDIANAPOLIS IN
1200 AM EDT THU JUL 28 2016

NOTE: "FAIR" INDICATES FEW OR NO CLOUDS BELOW 12,000 FEET WITH NO
SIGNIFICANT WEATHER AND/OR OBSTRUCTIONS TO VISIBILITY.

* - STATION DOES NOT REPORT WEATHER SUCH AS PRECIPITATION OR FOG.

+ - STATION NOT QUALITY CONTROLLED BY THE NATIONAL WEATHER SERVICE.
    USE DATA WITH CAUTION...ESPECIALLY DEWPOINT AND RELATIVE
    HUMIDITY OBSERVATIONS.

INZ001>003-010>013-019-020-280500-
NORTHWEST INDIANA

CITY           SKY/WX    TMP DP  RH WIND       PRES   REMARKS
GARY /AIRPORT/ CLOUDY    77  71  80 NE3       29.96S
KNOX *+        PTCLDY    70  66  88 CALM      29.97S
LA PORTE +       N/A    N/A N/A N/A CALM      29.98S
MICHIGAN CITY+ CLOUDY    72  66  83 CALM      29.98R
MONTICELLO +   CLEAR     71  66  85 CALM      29.96R
RENSSELAER +   CLEAR     70  68  94 CALM      29.97R
VALPARAISO     CLEAR     72  67  84 CALM      29.97S

$$

LMZ046-743>745-280500-
SOUTHERN LAKE MICHIGAN

STATION/POSITION TIME  TEMP    WIND        PRES    WAVE
                       AIR SEA DIR/SP/G            HT
                 (UTC) (F)     (DEG/KT/KT) (MB)    (FT)
BURNS HARBOR     0300   79     200/  2/  7 1014.9R
MICHIGAN CITY    0300   79     130/  5/  5   N/A
5NW MICH CITY    0400   77 77   10/  6/  8   N/A     1

$$

INZ004-005-014>016-021>024-280500-
NORTH CENTRAL INDIANA

CITY           SKY/WX    TMP DP  RH WIND       PRES   REMARKS
GOSHEN         CLEAR     72  64  76 CALM      29.97S
LOGANSPORT +   PTCLDY    68  64  88 CALM      29.97R
PERU/GRISSOM   MOCLDY    72  67  85 W1        29.95F
ROCHESTER +    PTCLDY    73  72  94 CALM      29.97S
SOUTH BEND     CLEAR     72  66  81 CALM      29.97S
WARSAW +       CLEAR     72  68  88 CALM      29.97S

$$

INZ006>009-017-018-025>027-280500-
NORTHEAST INDIANA

CITY           SKY/WX    TMP DP  RH WIND       PRES   REMARKS
ANGOLA *+      CLEAR     72  63  73 CALM      29.98S
AUBURN +       PTCLDY    72  61  68 CALM      29.97S
FORT WAYNE     PTCLDY    71  64  78 CALM      29.96F
HUNTINGTON +   PTCLDY    71  67  86 CALM      29.96S

$$

INZ028-029-035-036-043>045-051>053-280500-
WEST CENTRAL INDIANA

CITY           SKY/WX    TMP DP  RH WIND       PRES   REMARKS
CRAWFORDSVL +  CLOUDY    71  71 100 N3        29.96F
GREENCASTLE +  CLOUDY    75  73  94 CALM      29.96F
LAFAYETTE      CLOUDY    70  68  93 CALM      29.95F
TERRE HAUTE    CLOUDY    74  71  91 CALM      29.95S

$$

INZ030>032-037>040-046>048-054>057-064-065-280500-
CENTRAL INDIANA

CITY           SKY/WX    TMP DP  RH WIND       PRES   REMARKS
FISHERS *+     CLOUDY    75  70  83 CALM      29.96S
INDIANAPOLIS   CLOUDY    80  65  59 NE6       29.95F
-EAGLE CREEK   CLOUDY    79  65  62 N6        29.95F
KOKOMO *+      PTCLDY    73  64  73 CALM      29.97R
MARION +       MOCLDY    69  66  90 CALM      29.97F FOG
MT COMFORT *+  CLOUDY    73  70  88 NE3       29.96F
SHELBYVILLE    CLOUDY    78  72  81 CALM      29.95S
ZIONSVILLE +   CLOUDY    72  68  87 NE3       29.97F

$$

INZ033-034-041-042-049-050-058-059-280500-
EAST CENTRAL INDIANA

CITY           SKY/WX    TMP DP  RH WIND       PRES   REMARKS
MUNCIE         PTCLDY    73  65  75 CALM      29.97F

$$

INZ060-061-067>069-081>083-085>088-280500-
SOUTHWEST INDIANA

CITY           SKY/WX    TMP DP  RH WIND       PRES   REMARKS
EVANSVILLE     CLOUDY    75  74  96 CALM      29.94F
HUNTINGBURG *+ CLOUDY    73  70  88 S3        29.95S
WASHINGTON +   CLOUDY    76  76 100 MISG      29.94R

$$

INZ062-063-066-070>080-084-089>092-280500-
SOUTH CENTRAL AND SOUTHEAST INDIANA

CITY           SKY/WX    TMP DP  RH WIND       PRES   REMARKS
BLOOMINGTON    CLOUDY    75  70  84 CALM      29.95F
MADISON *+     MOCLDY    77  72  83 CALM      29.97F
NORTH VERNON + CLOUDY   N/A N/A N/A CALM      29.96S
SEYMOUR +      CLOUDY    77  77 100 CALM      29.94S

$$





USA.gov is the U.S. government's official web portal to all federal, state and local government web resources and services.